Baileyville, IL

4:22 PM CDT on August 28, 2016 (GMT -0500)
Albertus

Weather History for KFEP - January, 2014

Change the Weather History Date:

Thursday, January 2, 2014

  Actual Average Record
Temperature  
Mean Temperature 1 °F -  
Max Temperature 13 °F 27 °F 51 °F (2004)
Min Temperature -11 °F 9 °F -16 °F (1979)
Degree Days  
Heating Degree Days 64    
Moisture  
Dew Point 2 °F    
Average Humidity 77    
Maximum Humidity 85    
Minimum Humidity 69    
Precipitation  
Precipitation 0.00 in - - ()
Sea Level Pressure  
Sea Level Pressure 30.31 in    
Wind  
Wind Speed 8 mph (North)    
Max Wind Speed 16 mph    
Max Gust Speed 21 mph    
Visibility 10 miles    
Events      
Averages and records for this station are not official NWS values.
T = Trace of Precipitation, MM = Missing Value Source: NWS Daily Summary

Daily Weather History Graph

Daily Weather History Graph

Search for Another Location

Airport or City:

Trip Planner

Search our weather history database for the weather conditions in past years. The results will help you decide how hot, cold, wet, or windy it might be!

Date:

Astronomy

Jan. 02, 2014 Rise Set
Actual Time 7:27 AM CST 4:37 PM CST
Civil Twilight 6:55 AM CST 5:09 PM CST
Nautical Twilight 6:20 AM CST 5:44 PM CST
Astronomical Twilight 5:46 AM CST 6:18 PM CST
Moon 8:06 AM CST (1/2) 6:37 PM CST (1/2)
Length of Visible Light 10h 13m
Length of Day
9h 10m
Waxing Crescent, 3% of the Moon is Illuminated
Jan 2
Waxing Crescent
Jan 7
First Quarter
Jan 15
Full
Jan 23
Last Quarter
Jan 30
New

Hourly Weather History & Observations

Time (CST) Temp. Windchill Dew Point Humidity Pressure Visibility Wind Dir Wind Speed Gust Speed Precip Events Conditions
12:15 AM 11.1 °F -0.6 °F 4.6 °F 75% 30.24 in 10.0 mi North 8.1 mph - N/A   Overcast
12:35 AM 10.4 °F -1.5 °F 3.9 °F 75% 30.24 in 10.0 mi North 8.1 mph - N/A   Overcast
12:55 AM 9.5 °F -1.5 °F 3.0 °F 75% 30.23 in 10.0 mi North 6.9 mph - N/A   Overcast
1:15 AM 9.1 °F -4.0 °F 2.3 °F 74% 30.23 in 10.0 mi North 9.2 mph - N/A   Overcast
1:35 AM 9.0 °F -4.2 °F 2.7 °F 76% 30.22 in 10.0 mi North 9.2 mph - N/A   Overcast
1:55 AM 9.5 °F -4.4 °F 3.2 °F 76% 30.22 in 10.0 mi North 10.4 mph - N/A   Overcast
2:15 AM 9.5 °F -3.5 °F 3.0 °F 75% 30.23 in 10.0 mi North 9.2 mph - N/A   Overcast
2:35 AM 9.5 °F -0.3 °F 3.0 °F 75% 30.23 in 10.0 mi North 5.8 mph - N/A   Overcast
2:55 AM 10.0 °F -2.9 °F 3.6 °F 75% 30.22 in 10.0 mi North 9.2 mph - N/A   Overcast
3:15 AM 10.6 °F -1.3 °F 3.7 °F 74% 30.22 in 10.0 mi North 8.1 mph - N/A   Overcast
3:35 AM 11.1 °F -0.6 °F 4.6 °F 75% 30.21 in 10.0 mi North 8.1 mph - N/A   Overcast
3:55 AM 11.1 °F 1.7 °F 4.6 °F 75% 30.22 in 10.0 mi North 5.8 mph - N/A   Overcast
4:15 AM 11.1 °F -3.2 °F 4.5 °F 75% 30.22 in 10.0 mi North 11.5 mph - N/A   Overcast
4:35 AM 11.1 °F -2.4 °F 4.6 °F 75% 30.22 in 10.0 mi North 10.4 mph 16.1 mph N/A   Overcast
4:55 AM 11.1 °F -2.4 °F 4.6 °F 75% 30.22 in 10.0 mi North 10.4 mph - N/A   Overcast
5:15 AM 11.1 °F -0.6 °F 4.6 °F 75% 30.22 in 10.0 mi North 8.1 mph - N/A   Overcast
5:35 AM 11.1 °F 0.4 °F 4.6 °F 75% 30.23 in 10.0 mi North 6.9 mph - N/A   Overcast
5:55 AM 11.1 °F -0.6 °F 4.6 °F 75% 30.23 in 10.0 mi North 8.1 mph - N/A   Overcast
6:15 AM 11.1 °F -0.6 °F 4.6 °F 75% 30.25 in 10.0 mi North 8.1 mph - N/A   Overcast
6:35 AM 11.1 °F -1.6 °F 4.8 °F 76% 30.26 in 10.0 mi North 9.2 mph - N/A   Overcast
6:55 AM 11.1 °F -0.6 °F 4.8 °F 76% 30.25 in 10.0 mi North 8.1 mph 17.3 mph N/A   Overcast
7:15 AM 10.9 °F 0.2 °F 5.2 °F 78% 30.25 in 10.0 mi North 6.9 mph - N/A   Overcast
7:35 AM 10.9 °F -1.8 °F 5.4 °F 78% 30.25 in 10.0 mi North 9.2 mph - N/A   Overcast
7:55 AM 10.9 °F -1.8 °F 5.7 °F 79% 30.26 in 10.0 mi North 9.2 mph - N/A   Overcast
8:15 AM 11.1 °F -0.6 °F 5.9 °F 80% 30.26 in 10.0 mi North 8.1 mph - N/A   Overcast
8:35 AM 11.1 °F -1.6 °F 5.9 °F 80% 30.27 in 10.0 mi North 9.2 mph - N/A   Overcast
8:55 AM 11.1 °F -0.6 °F 5.9 °F 80% 30.28 in 10.0 mi North 8.1 mph - N/A   Overcast
9:15 AM 11.1 °F 0.4 °F 5.9 °F 80% 30.28 in 10.0 mi North 6.9 mph - N/A   Overcast
9:35 AM 11.1 °F -1.6 °F 5.9 °F 80% 30.29 in 10.0 mi North 9.2 mph - N/A   Overcast
9:55 AM 11.1 °F -2.4 °F 5.9 °F 80% 30.30 in 10.0 mi North 10.4 mph 16.1 mph N/A   Overcast
10:15 AM 11.1 °F -1.6 °F 5.9 °F 80% 30.31 in 7.0 mi North 9.2 mph - N/A   Overcast
10:35 AM 11.1 °F -4.5 °F 5.9 °F 80% 30.31 in 5.0 mi North 13.8 mph 17.3 mph N/A   Haze
10:55 AM 11.1 °F -3.9 °F 5.4 °F 78% 30.30 in 10.0 mi North 12.7 mph 16.1 mph N/A   Overcast
11:15 AM 11.1 °F -4.5 °F 5.0 °F 76% 30.30 in 10.0 mi North 13.8 mph 17.3 mph N/A   Overcast
11:35 AM 11.1 °F -5.7 °F 4.8 °F 76% 30.29 in 10.0 mi North 16.1 mph - N/A   Overcast
11:55 AM 11.1 °F -4.5 °F 4.8 °F 76% 30.29 in 10.0 mi North 13.8 mph 20.7 mph N/A   Overcast
12:15 PM 11.5 °F -4.7 °F 5.0 °F 75% 30.29 in 10.0 mi North 15.0 mph - N/A   Overcast
12:35 PM 11.1 °F -3.2 °F 4.6 °F 75% 30.29 in 10.0 mi North 11.5 mph - N/A   Overcast
12:55 PM 13.6 °F 0.7 °F 7.0 °F 75% 30.30 in 10.0 mi North 10.4 mph 16.1 mph N/A   Overcast
1:15 PM 13.6 °F 0.0 °F 6.4 °F 73% 30.30 in 10.0 mi North 11.5 mph - N/A   Overcast
1:35 PM 13.6 °F 2.5 °F 6.4 °F 73% 30.31 in 10.0 mi North 8.1 mph 16.1 mph N/A   Overcast
1:55 PM 13.6 °F -0.7 °F 6.1 °F 72% 30.31 in 10.0 mi North 12.7 mph 17.3 mph N/A   Overcast
2:15 PM 13.5 °F 3.3 °F 5.9 °F 72% 30.32 in 10.0 mi North 6.9 mph - N/A   Overcast
2:35 PM 13.3 °F -0.5 °F 5.4 °F 71% 30.33 in 10.0 mi North 11.5 mph - N/A   Overcast
2:55 PM 13.5 °F -0.2 °F 5.7 °F 71% 30.34 in 10.0 mi NNW 11.5 mph - N/A   Overcast
3:15 PM 11.1 °F 0.4 °F 2.8 °F 69% 30.34 in 10.0 mi North 6.9 mph - N/A   Overcast
3:35 PM 11.1 °F 1.7 °F 3.0 °F 70% 30.35 in 10.0 mi North 5.8 mph - N/A   Overcast
3:55 PM 11.1 °F 0.4 °F 3.0 °F 70% 30.36 in 10.0 mi North 6.9 mph - N/A   Overcast
4:15 PM 8.6 °F 0.1 °F 1.0 °F 71% 30.36 in 10.0 mi North 4.6 mph - N/A   Mostly Cloudy
4:35 PM 7.9 °F -2.2 °F 0.9 °F 73% 30.37 in 10.0 mi North 5.8 mph - N/A   Scattered Clouds
4:55 PM 7.9 °F - 0.7 °F 72% 30.38 in 10.0 mi Calm Calm - N/A   Clear
5:15 PM 6.3 °F - -0.2 °F 75% 30.39 in 10.0 mi Calm Calm - N/A   Clear
5:35 PM 6.4 °F - 0.5 °F 77% 30.39 in 10.0 mi Calm Calm - N/A   Scattered Clouds
5:55 PM 4.6 °F - -1.1 °F 77% 30.39 in 10.0 mi Calm Calm - N/A   Scattered Clouds
6:15 PM 6.1 °F -0.9 °F -0.0 °F 76% 30.39 in 10.0 mi WNW 3.5 mph - N/A   Clear
6:35 PM 5.4 °F -1.7 °F -0.6 °F 76% 30.40 in 10.0 mi WNW 3.5 mph - N/A   Clear
6:55 PM 3.2 °F - -2.2 °F 78% 30.40 in 10.0 mi Calm Calm - N/A   Clear
7:15 PM 3.0 °F - -1.1 °F 83% 30.41 in 10.0 mi Calm Calm - N/A   Unknown
7:35 PM 3.4 °F - -1.5 °F 80% 30.41 in 10.0 mi Calm Calm - N/A   Clear
7:55 PM 1.0 °F - -3.6 °F 81% 30.41 in 10.0 mi Calm Calm - N/A   Unknown
8:15 PM -0.0 °F - -4.4 °F 82% 30.41 in 10.0 mi Calm Calm - N/A   Clear
8:35 PM 1.0 °F - -2.9 °F 83% 30.41 in 10.0 mi Calm Calm - N/A   Clear
8:55 PM -0.2 °F -8.1 °F -4.9 °F 81% 30.42 in 10.0 mi WNW 3.5 mph - N/A   Clear
9:15 PM -1.7 °F - -5.4 °F 84% 30.42 in 10.0 mi Calm Calm - N/A   Clear
9:35 PM -1.7 °F - -5.3 °F 85% 30.42 in 10.0 mi Calm Calm - N/A   Clear
9:55 PM 0.5 °F -11.0 °F -4.0 °F 81% 30.43 in 10.0 mi WNW 5.8 mph - N/A   Clear
10:15 PM -3.5 °F -13.9 °F -7.8 °F 82% 30.44 in 10.0 mi WNW 4.6 mph - N/A   Clear
10:35 PM -4.0 °F - -7.8 °F 84% 30.43 in 10.0 mi Calm Calm - N/A   Clear
10:55 PM -1.5 °F - -5.8 °F 82% 30.42 in 10.0 mi Calm Calm - N/A   Clear
11:15 PM -9.8 °F - -13.7 °F 83% 30.42 in 10.0 mi Calm Calm - N/A   Clear
11:35 PM -11.6 °F - -15.5 °F 83% 30.42 in 10.0 mi Calm Calm - N/A   Clear
11:55 PM -4.9 °F - -8.3 °F 85% 30.42 in 10.0 mi Calm Calm - N/A   Clear